Weather in Manino

Russia / Lipetsk Oblast     52°08′25″N   39°20′21″E
temp.,
°C
wind,
m/s
gust,
m/s
humid.,
%
clouds,
%
prec.,
mm/h
press.,
hPa
HPBL,
m
14 may, fri
fri1400:00+13ene1189100 0.0 101617
03:00+13e2288100 0.0 101617
06:00+14se249263 0.3 101698
09:00+19ese4673100 0.3 1015444
12:00+23se695698 0.0 10141361
15:00+21sse81565100 0.4 10141178
18:00+19se41068100 0.1 1012182
21:00+18ese41581100 0.1 1011386
15 may, sat
sat1500:00+16sse3591100 0.0 101183
03:00+15sse359411 0.0 101189
06:00+16ssw2594100 0.0 1011155
09:00+20ssw5776100 0.2 1013497
12:00+22sw465750 0.1 10121008
15:00+23ssw574962 0.1 10121498
18:00+21sw37644 0.0 1013477
21:00+16sw23785 0.0 101429
16 may, sun
sun1600:00+15sw1181100 0.0 101411
03:00+14w118399 0.0 101410
06:00+15se1183100 0.0 101526
09:00+20se226433 0.0 1015487
12:00+24sse23475 0.0 10141594
15:00+26ese124438 0.0 10141948
18:00+23e256384 0.0 1013203
21:00+18e348377 0.1 101351
17 may, mon
mon1700:00+16e338977 0.0 101342
03:00+15e36835 0.0 101291
06:00+15e36835 0.0 1011119
09:00+22se51054100 0.0 1012535
12:00+26se694067 0.0 10111063
15:00+27se7124470 0.0 10101828
18:00+24se6135751 0.0 1009864
21:00+20ese5156816 0.0 1009417
18 may, tue
tue1800:00+18se413635 0.0 1008321
03:00+15ese3107034 0.0 1008187
06:00+15se31077100 0.0 1008229
09:00+18sse51088100 1.5 1008476
12:00+23s5862100 0.1 10091017
15:00+23ssw5765100 0.8 10091231
18:00+21ssw3682100 2.0 1008386
21:00+16se61194100 10.7 1010367